Location: *
(31.2983°S, 151.4094°E)
Time: 02:33:15
(UTC+00:00)

Cosmos 2297 - Pass Details

Date: 27 November 2019
Orbit: 835 x 860 km, 71.0° (Epoch: 08 December)

Event Time Altitude Azimuth Distance (km) Brightness Sun altitude
Exits shadow 14:48:34 12° 233° (SW) 2,356 6.2 -35.2°
Drops below altitude 10° 14:50:13 10° 216° (SW) 2,469 6.4 -35.1°
Sets 14:54:40 0° 184° (S) 3,412 7.7 -34.7°
